This demonstration page uses our WeatherBlox Daily Observations layout. Learn more.

Hourly Observations for February 24, 2020

Temp ( °F °C ) Dew Point ( °F °C ) Humidity (%) Winds ( mph kmh ) Pressure ( in mb ) Visibility ( mi km ) Precip ( " mm )
12:54 am 00:54 Partly Cloudy 37 2.8 28 -2.2 70 70 NNE 9 15 29.93 1014 10 16.0934 0 0
1:54 am 01:54 Mostly Clear 36 2.2 27 -2.8 70 70 N 9 15 29.92 1013 10 16.0934 0 0
2:54 am 02:54 Clear 35 1.7 26 -3.3 70 70 NNE 13 20 29.9 1013 10 16.0934 0 0
3:54 am 03:54 Clear 34 1.1 26 -3.3 73 73 N 10 17 29.88 1012 10 16.0934 0 0
4:54 am 04:54 Clear 33 0.6 25 -3.9 72 72 N 9 15 29.88 1012 10 16.0934 0 0
5:54 am 05:54 Clear 30 -1.1 25 -3.9 82 82 N 9 15 29.9 1012 10 16.0934 0 0
6:54 am 06:54 Clear 27 -2.8 23 -5 85 85 N 6 9 29.91 1013 10 16.0934 0 0
7:54 am 07:54 Sunny 30 -1.1 25 -3.9 82 82 N 6 9 29.91 1013 10 16.0934 0 0
8:54 am 08:54 Sunny 33 0.6 26 -3.3 75 75 N 12 19 29.91 1013 10 16.0934 0 0
9:54 am 09:54 Sunny 38 3.3 24 -4.4 57 57 NE 13 20 29.89 1012 10 16.0934 0 0
10:54 am 10:54 Sunny 42 5.6 24 -4.4 49 49 ENE 13 20 29.89 1012 10 16.0934 0 0
11:54 am 11:54 Sunny 46 7.8 21 -6.1 37 37 NNE 13 20 29.88 1012 10 16.0934 0 0
12:54 pm 12:54 Sunny 48 8.9 20 -6.7 33 33 N 12 19 29.85 1011 10 16.0934 0 0
1:54 pm 13:54 Sunny 49 9.4 19 -7.2 31 31 undefined N/A 29.84 1010 10 16.0934 0 0
2:54 pm 14:54 Sunny 50 10 17 -8.3 27 27 NE 13 20 29.83 1010 10 16.0934 0 0
3:54 pm 15:54 Sunny 50 10 17 -8.3 27 27 NNE 12 19 29.84 1011 10 16.0934 0 0
4:54 pm 16:54 Sunny 48 8.9 19 -7.2 32 32 NNE 16 26 29.85 1011 10 16.0934 0 0
5:54 pm 17:54 Sunny 44 6.7 19 -7.2 37 37 NNE 12 19 29.88 1012 10 16.0934 0 0
6:54 pm 18:54 Clear 35 1.7 22 -5.6 59 59 N 10 17 29.93 1014 10 16.0934 0 0
7:54 pm 19:54 Clear 37 2.8 24 -4.4 59 59 NE 13 20 29.95 1014 10 16.0934 0 0
8:54 pm 20:54 Clear 37 2.8 23 -5 57 57 NE 10 17 29.95 1014 10 16.0934 0 0
9:54 pm 21:54 Clear 35 1.7 25 -3.9 67 67 NE 12 19 29.96 1014 10 16.0934 0 0
10:54 pm 22:54 Clear 35 1.7 26 -3.3 70 70 NE 8 13 29.96 1015 10 16.0934 0 0
11:54 pm 23:54 Mostly Clear 33 0.6 25 -3.9 72 72 NNE 8 13 29.97 1015 10 16.0934 0 0

Powered by AerisWeather